| time (UTC) | temp F | wind direction | speed knots | gust knots | rain 1hr in | rain 24hr in | rain mn in | humidity % | barometer mb |
| 20260504220405 | 68 | 238 | 3.5 | 10.4 | 0.00 | 0.00 | 0.00 | 17 | 1002.7 |
| 20260504211904 | 69 | 265 | 3.5 | 8.7 | 0.00 | 0.00 | 0.00 | 15 | 1003.1 |
| 20260504210405 | 69 | 100 | 1.7 | 13.0 | 0.00 | 0.00 | 0.00 | 17 | 1003.2 |
| 20260504205405 | 69 | 243 | 4.3 | 13.0 | 0.00 | 0.00 | 0.00 | 16 | 1003.5 |
| 20260504204904 | 69 | 198 | 4.3 | 10.4 | 0.00 | 0.00 | 0.00 | 16 | 1003.5 |
| 20260504203904 | 68 | 196 | 4.3 | 11.3 | 0.00 | 0.00 | 0.00 | 18 | 1003.7 |
| 20260504200904 | 68 | 257 | 1.7 | 10.4 | 0.00 | 0.00 | 0.00 | 21 | 1003.7 |
| 20260504194904 | 68 | 207 | 4.3 | 10.4 | 0.00 | 0.00 | 0.00 | 21 | 1003.8 |
| 20260504194404 | 69 | 192 | 5.2 | 8.7 | 0.00 | 0.00 | 0.00 | 21 | 1003.9 |
| 20260504193405 | 69 | 231 | 1.7 | 8.7 | 0.00 | 0.00 | 0.00 | 21 | 1004.0 |
| 20260504192904 | 69 | 243 | 2.6 | 8.7 | 0.00 | 0.00 | 0.00 | 22 | 1004.0 |
| 20260504192405 | 68 | 213 | 5.2 | 8.7 | 0.00 | 0.00 | 0.00 | 23 | 1003.9 |
| 20260504190904 | 67 | 184 | 4.3 | 10.4 | 0.00 | 0.00 | 0.00 | 24 | 1004.1 |
| 20260504190404 | 67 | 179 | 5.2 | 10.4 | 0.00 | 0.00 | 0.00 | 23 | 1004.2 |
| 20260504185904 | 67 | 195 | 2.6 | 11.3 | 0.00 | 0.00 | 0.00 | 23 | 1004.3 |
| 20260504185406 | 67 | 244 | 4.3 | 11.3 | 0.00 | 0.00 | 0.00 | 23 | 1004.3 |
| 20260504184905 | 67 | 216 | 4.3 | 10.4 | 0.00 | 0.00 | 0.00 | 24 | 1004.2 |
| 20260504184404 | 67 | 205 | 3.5 | 10.4 | 0.00 | 0.00 | 0.00 | 24 | 1004.4 |
| 20260504183904 | 67 | 218 | 2.6 | 7.0 | 0.00 | 0.00 | 0.00 | 25 | 1004.2 |
| 20260504183405 | 67 | 272 | 2.6 | 7.0 | 0.00 | 0.00 | 0.00 | 24 | 1004.4 |
| 20260504180905 | 66 | 176 | 3.5 | 10.4 | 0.00 | 0.00 | 0.00 | 27 | 1004.7 |
| 20260504175904 | 66 | 151 | 1.7 | 6.1 | 0.00 | 0.00 | 0.00 | 28 | 1004.9 |
| 20260504173904 | 65 | 234 | 2.6 | 7.0 | 0.00 | 0.00 | 0.00 | 30 | 1005.1 |
| 20260504172905 | 66 | 194 | 2.6 | 7.8 | 0.00 | 0.00 | 0.00 | 31 | 1005.1 |
| 20260504172405 | 66 | 218 | 1.7 | 7.8 | 0.00 | 0.00 | 0.00 | 32 | 1005.2 |
| 20260504171904 | 66 | 225 | 1.7 | 4.3 | 0.00 | 0.00 | 0.00 | 30 | 1005.2 |
| 20260504171405 | 65 | 326 | 1.7 | 7.0 | 0.00 | 0.00 | 0.00 | 32 | 1005.1 |
| 20260504150905 | 57 | 154 | 2.6 | 4.3 | 0.00 | 0.00 | 0.00 | 59 | 1006.7 |
| 20260504150404 | 56 | 0 | 1.7 | 5.2 | 0.00 | 0.00 | 0.00 | 59 | 1006.7 |
| 20260504130404 | 50 | 153 | 0.0 | 2.6 | 0.00 | 0.00 | 0.00 | 69 | 1006.9 |
| 20260504110405 | 49 | 150 | 0.9 | 2.6 | 0.00 | 0.00 | 0.00 | 70 | 1006.2 |
| 20260504100404 | 50 | 83 | 0.9 | 2.6 | 0.00 | 0.00 | 0.00 | 73 | 1006.2 |
| 20260504081905 | 51 | 192 | 0.0 | 0.0 | 0.00 | 0.00 | 0.00 | 67 | 1007.5 |
| 20260504081404 | 51 | 192 | 0.0 | 0.0 | 0.00 | 0.00 | 0.00 | 66 | 1007.6 |
| 20260504070404 | 51 | 149 | 1.7 | 2.6 | 0.00 | 0.00 | 0.00 | 60 | 1008.4 |
| 20260504045404 | 53 | 150 | 0.9 | 2.6 | 0.00 | 0.00 | 0.00 | 54 | 1008.8 |
| 20260504044404 | 53 | 11 | 0.9 | 2.6 | 0.00 | 0.00 | 0.00 | 50 | 1008.8 |
| 20260504043405 | 53 | 145 | 0.0 | 2.6 | 0.00 | 0.00 | 0.00 | 49 | 1008.8 |
| 20260504042404 | 54 | 131 | 0.9 | 4.3 | 0.00 | 0.00 | 0.00 | 48 | 1008.6 |
| 20260504041404 | 55 | 84 | 0.0 | 1.7 | 0.00 | 0.00 | 0.00 | 45 | 1008.7 |
| 20260504035904 | 55 | 42 | 0.9 | 2.6 | 0.00 | 0.00 | 0.00 | 40 | 1008.4 |
| 20260504034904 | 56 | 138 | 0.0 | 0.9 | 0.00 | 0.00 | 0.00 | 37 | 1008.5 |
| 20260504032904 | 58 | 135 | 0.9 | 1.7 | 0.00 | 0.00 | 0.00 | 34 | 1008.5 |
| 20260504031904 | 58 | 135 | 0.9 | 2.6 | 0.00 | 0.00 | 0.00 | 33 | 1008.5 |
| 20260504030405 | 59 | 150 | 2.6 | 4.3 | 0.00 | 0.00 | 0.00 | 32 | 1008.4 |
| 20260504024904 | 60 | 144 | 1.7 | 7.0 | 0.00 | 0.00 | 0.00 | 30 | 1008.1 |
| 20260504023404 | 60 | 139 | 1.7 | 7.0 | 0.00 | 0.00 | 0.00 | 30 | 1007.9 |
| 20260504022904 | 60 | 159 | 1.7 | 7.0 | 0.00 | 0.00 | 0.00 | 30 | 1007.8 |
| 20260504021904 | 61 | 155 | 1.7 | 4.3 | 0.00 | 0.00 | 0.00 | 29 | 1007.7 |
| 20260504021404 | 61 | 148 | 1.7 | 4.3 | 0.00 | 0.00 | 0.00 | 29 | 1007.6 |
| 20260504020403 | 62 | 169 | 1.7 | 4.3 | 0.00 | 0.00 | 0.00 | 29 | 1007.6 |
| 20260504015404 | 62 | 171 | 0.9 | 7.0 | 0.00 | 0.00 | 0.00 | 29 | 1007.4 |
| 20260504014405 | 63 | 0 | 2.6 | 7.0 | 0.00 | 0.00 | 0.00 | 27 | 1007.3 |
| 20260504013404 | 64 | 0 | 1.7 | 8.7 | 0.00 | 0.00 | 0.00 | 27 | 1007.4 |
| 20260504012904 | 64 | 0 | 2.6 | 8.7 | 0.00 | 0.00 | 0.00 | 27 | 1007.4 |
| 20260504011904 | 64 | 0 | 4.3 | 7.0 | 0.00 | 0.00 | 0.00 | 26 | 1007.5 |
| 20260504011406 | 64 | 0 | 2.6 | 7.0 | 0.00 | 0.00 | 0.00 | 26 | 1007.5 |
| 20260504005404 | 65 | 198 | 1.7 | 7.0 | 0.00 | 0.00 | 0.00 | 25 | 1007.6 |
| 20260504002904 | 66 | 197 | 2.6 | 8.7 | 0.00 | 0.00 | 0.00 | 25 | 1007.7 |
| 20260504002404 | 66 | 183 | 4.3 | 8.7 | 0.00 | 0.00 | 0.00 | 25 | 1007.8 |
| 20260504001904 | 67 | 164 | 4.3 | 8.7 | 0.00 | 0.00 | 0.00 | 24 | 1007.7 |
| 20260504001404 | 67 | 157 | 4.3 | 8.7 | 0.00 | 0.00 | 0.00 | 25 | 1007.8 |
| 20260504000403 | 67 | 204 | 1.7 | 7.8 | 0.00 | 0.00 | 0.00 | 24 | 1007.9 |
| 20260503235905 | 67 | 155 | 2.6 | 10.4 | 0.00 | 0.00 | 0.00 | 24 | 1007.9 |
| 20260503235404 | 67 | 184 | 4.3 | 10.4 | 0.00 | 0.00 | 0.00 | 24 | 1008.0 |
| 20260503234904 | 67 | 148 | 5.2 | 10.4 | 0.00 | 0.00 | 0.00 | 24 | 1007.9 |
| 20260503234404 | 67 | 202 | 1.7 | 7.8 | 0.00 | 0.00 | 0.00 | 24 | 1007.9 |
| 20260503232904 | 68 | 199 | 3.5 | 10.4 | 0.00 | 0.00 | 0.00 | 24 | 1008.1 |
| 20260503230904 | 68 | 216 | 3.5 | 8.7 | 0.00 | 0.00 | 0.00 | 26 | 1008.3 |
| 20260503230404 | 68 | 148 | 1.7 | 8.7 | 0.00 | 0.00 | 0.00 | 25 | 1008.3 |
| 20260503225905 | 68 | 166 | 4.3 | 8.7 | 0.00 | 0.00 | 0.00 | 24 | 1008.5 |
| 20260503224904 | 68 | 177 | 2.6 | 6.1 | 0.00 | 0.00 | 0.00 | 25 | 1008.5 |
| 20260503223904 | 67 | 165 | 2.6 | 8.7 | 0.00 | 0.00 | 0.00 | 24 | 1008.6 |
| 20260503222904 | 69 | 133 | 5.2 | 8.7 | 0.00 | 0.00 | 0.00 | 22 | 1008.9 |
| 20260503221904 | 69 | 239 | 2.6 | 7.8 | 0.00 | 0.00 | 0.00 | 23 | 1009.0 |